Flag Weather past 2 weeks in Valencia, Venezuela

Now
81 °F

Overcast.


Feels Like: 86 °F
Forecast: 65 / 87 °F
Wind: 6 mph from Southeast

Location: Valencia Airport

Current Time: Nov 24, 2014 at 9:48:51 AM

Latest Report: Nov 24, 2014 at 8:30 AM


Visibility: N/A

Pressure: 29.98 "Hg

Humidity: 84%

Dew point: 75 °F

Location of ValenciaLocation

Historic Weather in Valencia — Graph

°F

Valencia temperature yesterday

Maximum temperature yesterday: 88 °F (at 1:30 PM)
Minimum temperature yesterday: 73 °F (at 4:30 AM)
Average temperature yesterday: 80 °F

Past Weeks' High & Low Weather Summary

 TemperatureHumidityPressure
High91 °F (Nov 10, 12:30 PM)100% (Nov 14, 9:30 PM)30.04 "Hg (Nov 14, 9:30 PM)
Low72 °F (Nov 17, 4:30 AM)18% (Nov 14, 10:30 AM)29.77 "Hg (Nov 12, 4:30 PM)
Average82 °F71%29.92 "Hg
* Reported Nov 9 8:30 AM — Nov 24 8:30 AM, Valencia, Weather by CustomWeather, © 2014

Note: Actual official high and low records may vary slightly from our data, if they occured in-between our weather recording intervals... More about our weather records

Advertising

Valencia weather history for previous 24 hours

 ConditionsComfort  
Time TempWeatherWind HumidityBarometerVisibility
8:30 AM
Nov 24
81 °FOvercast.6 mph84%29.98 "HgN/A
7:30 AM77 °FPartly sunny.No wind83%29.95 "HgN/A
6:30 AM72 °FPartly sunny.No wind94%29.92 "HgN/A
5:30 AM72 °FPassing clouds.2 mph94%29.92 "HgN/A
4:30 AM73 °FClear.2 mph89%29.89 "Hg10 mi
10:30 PM
Nov 23
77 °FClear.2 mph83%29.95 "Hg10 mi
9:30 PM79 °FPassing clouds.5 mph74%29.92 "HgN/A
8:30 PM79 °FPassing clouds.2 mph79%29.92 "HgN/A
7:30 PM81 °FPassing clouds.3 mph70%29.89 "HgN/A
6:30 PM79 °FPassing clouds.5 mph65%29.86 "HgN/A
5:30 PM82 °FPassing clouds.8 mph66%29.89 "HgN/A
3:30 PM86 °FScattered clouds.5 mph59%29.86 "HgN/A
1:30 PM88 °FScattered clouds.9 mph59%29.95 "HgN/A
12:30 PM86 °FScattered clouds.3 mph62%29.98 "HgN/A
11:30 AM84 °FScattered clouds.3 mph66%29.98 "HgN/A
10:30 AM81 °FScattered clouds.3 mph74%30.01 "HgN/A
Weather by CustomWeather, © 2014

See weather overviewHow to use our weather pages